H1 CPF 2 NER 2022 7 11 9 192 01 glonass141 H2 1908801 9141 44850 2022 7 11 0 0 0 2022 7 14 23 45 0 900 1 1 0 0 0 1 H9 10 0 59771 0.00000 0 9506002.939 11967425.651 -20390691.979 10 0 59771 900.00000 0 6962812.329 11398658.096 -21700347.217 10 0 59771 1800.00000 0 4250311.528 11002006.862 -22587262.885 10 0 59771 2700.00000 0 1433938.918 10801453.323 -23034152.780 10 0 59771 3600.00000 0 -1416909.869 10809146.134 -23032324.106 10 0 59771 4500.00000 0 -4231535.296 11024870.228 -22581846.664 10 0 59771 5400.00000 0 -6940640.869 11436057.202 -21691548.790 10 0 59771 6300.00000 0 -9478980.815 12018336.433 -20378840.312 10 0 59771 7200.00000 0 -11787838.036 12736603.140 -18669366.326 10 0 59771 8100.00000 0 -13817229.346 13546557.644 -16596498.934 10 0 59771 9000.00000 0 -15527746.599 14396649.974 -14200677.336 10 0 59771 9900.00000 0 -16891957.659 15230346.800 -11528609.795 10 0 59771 10800.00000 0 -17895310.084 15988623.997 -8632353.688 10 0 59771 11700.00000 0 -18536501.383 16612578.694 -5568292.300 10 0 59771 12600.00000 0 -18827302.297 17046049.742 -2396029.220 10 0 59771 13500.00000 0 -18791842.742 17238135.390 822777.402 10 0 59771 14400.00000 0 -18465392.663 17145501.591 4025617.316 10 0 59771 15300.00000 0 -17892691.126 16734383.504 7150343.342 10 0 59771 16200.00000 0 -17125895.859 15982196.016 10136375.322 10 0 59771 17100.00000 0 -16222240.918 14878685.799 12925869.530 10 0 59771 18000.00000 0 -15241501.963 13426576.906 15464831.087 10 0 59771 18900.00000 0 -14243376.140 11641683.178 17704148.591 10 0 59771 19800.00000 0 -13284886.482 9552482.858 19600531.974 10 0 59771 20700.00000 0 -12417919.187 7199173.171 21117336.621 10 0 59771 21600.00000 0 -11686996.110 4632243.766 22225259.299 10 0 59771 22500.00000 0 -11127374.613 1910627.477 22902893.797 10 0 59771 23400.00000 0 -10763553.184 -900495.979 23137136.758 10 0 59771 24300.00000 0 -10608244.363 -3732153.888 22923436.831 10 0 59771 25200.00000 0 -10661857.197 -6514192.213 22265882.839 10 0 59771 26100.00000 0 -10912510.644 -9177938.702 21177129.352 10 0 59771 27000.00000 0 -11336577.495 -11658809.095 19678160.677 10 0 59771 27900.00000 0 -11899736.678 -13898750.094 17797896.942 10 0 59771 28800.00000 0 -12558490.763 -15848419.108 15572648.714 10 0 59771 29700.00000 0 -13262086.173 -17469011.178 13045429.218 10 0 59771 30600.00000 0 -13954756.619 -18733657.664 10265135.887 10 0 59771 31500.00000 0 -14578196.396 -19628338.356 7285615.713 10 0 59771 32400.00000 0 -15074160.084 -20152268.732 4164631.223 10 0 59771 33300.00000 0 -15387079.258 -20317745.623 962746.184 10 0 59771 34200.00000 0 -15466585.441 -20149457.109 -2257847.720 10 0 59771 35100.00000 0 -15269831.878 -19683285.102 -5434540.574 10 0 59771 36000.00000 0 -14763514.625 -18964650.552 -8505526.430 10 0 59771 36900.00000 0 -13925505.761 -18046470.820 -11411013.463 10 0 59771 37800.00000 0 -12746027.659 -16986815.512 -14094397.630 10 0 59771 38700.00000 0 -11228316.520 -15846360.073 -16503375.966 10 0 59771 39600.00000 0 -9388745.054 -14685745.308 -18590976.621 10 0 59771 40500.00000 0 -7256397.127 -13562955.149 -20316484.659 10 0 59771 41400.00000 0 -4872110.514 -12530824.213 -21646244.722 10 0 59771 42300.00000 0 -2287026.635 -11634781.190 -22554324.225 10 0 59771 43200.00000 0 439292.978 -10910923.985 -23023023.765 10 0 59771 44100.00000 0 3241105.312 -10384508.206 -23043224.566 10 0 59771 45000.00000 0 6048986.282 -10068912.969 -22614566.104 10 0 59771 45900.00000 0 8792488.662 -9965127.466 -21745450.565 10 0 59771 46800.00000 0 11402846.616 -10061779.494 -20452874.257 10 0 59771 47700.00000 0 13815613.922 -10335704.040 -18762089.543 10 0 59771 48600.00000 0 15973125.916 -10753026.937 -16706104.337 10 0 59771 49500.00000 0 17826682.759 -11270716.739 -14325029.352 10 0 59771 50400.00000 0 19338363.335 -11838538.041 -11665286.477 10 0 59771 51300.00000 0 20482394.961 -12401322.460 -8778694.396 10 0 59771 52200.00000 0 21246022.922 -12901460.135 -5721449.983 10 0 59771 53100.00000 0 21629844.995 -13281505.373 -2553026.229 10 0 59771 54000.00000 0 21647598.890 -13486785.470 664991.089 10 0 59771 54900.00000 0 21325413.575 -13467901.887 3870104.629 10 0 59771 55800.00000 0 20700557.976 -13183017.829 7000120.593 10 0 59771 56700.00000 0 19819741.519 -12599835.662 9994353.808 10 0 59771 57600.00000 0 18737039.533 -11697180.956 12794799.391 10 0 59771 58500.00000 0 17511531.807 -10466126.798 15347248.492 10 0 59771 59400.00000 0 16204754.080 -8910611.398 17602327.238 10 0 59771 60300.00000 0 14878069.481 -7047523.255 19516439.779 10 0 59771 61200.00000 0 13590069.652 -4906250.270 21052598.365 10 0 59771 62100.00000 0 12394113.506 -2527711.235 22181125.864 10 0 59771 63000.00000 0 11336105.367 37090.799 22880218.497 10 0 59771 63900.00000 0 10452604.079 2728934.208 23136359.180 10 0 59771 64800.00000 0 9769340.742 5482587.663 22944574.423 10 0 59771 65700.00000 0 9300205.848 8229272.390 22308530.425 10 0 59771 66600.00000 0 9046747.376 10899277.666 21240466.572 10 0 59771 67500.00000 0 8998200.407 13424623.132 19760967.266 10 0 59771 68400.00000 0 9132047.062 15741659.390 17898575.615 10 0 59771 69300.00000 0 9415083.807 17793500.373 15689255.288 10 0 59771 70200.00000 0 9804952.090 19532187.604 13175709.463 10 0 59771 71100.00000 0 10252068.963 20920496.899 10406568.490 10 0 59771 72000.00000 0 10701877.376 21933312.291 7435460.566 10 0 59771 72900.00000 0 11097322.082 22558509.587 4319982.162 10 0 59771 73800.00000 0 11381447.041 22797311.949 1120587.199 10 0 59771 74700.00000 0 11500004.585 22664101.784 -2100583.902 10 0 59771 75600.00000 0 11403965.408 22185696.052 -5280912.672 10 0 59771 76500.00000 0 11051822.131 21400114.701 -8358524.750 10 0 59771 77400.00000 0 10411587.407 20354893.557 -11273501.220 10 0 59771 78300.00000 0 9462400.154 19105012.520 -13969054.666 10 0 59771 79200.00000 0 8195669.829 17710526.469 -16392645.979 10 0 59771 80100.00000 0 6615708.282 16233999.135 -18497019.035 10 0 59771 81000.00000 0 4739820.335 14737848.715 -20241132.092 10 0 59771 81900.00000 0 2597847.353 13281717.788 -21590966.909 10 0 59771 82800.00000 0 231181.360 11919979.129 -22520199.116 10 0 59771 83700.00000 0 -2308710.185 10699483.048 -23010716.359 10 0 59771 84600.00000 0 -4962188.135 9657641.490 -23052973.882 10 0 59771 85500.00000 0 -7663694.683 8820929.718 -22646180.541 10 0 59772 0.00000 0 -10344261.593 8203868.425 -21798311.838 10 0 59772 900.00000 0 -12934170.362 7808528.283 -20525949.374 10 0 59772 1800.00000 0 -15365649.519 7624577.687 -18853951.431 10 0 59772 2700.00000 0 -17575501.241 7629869.379 -16814959.961 10 0 59772 3600.00000 0 -19507544.050 7791540.696 -14448755.113 10 0 59772 4500.00000 0 -21114771.202 8067579.122 -11801470.117 10 0 59772 5400.00000 0 -22361134.841 8408785.515 -8924682.556 10 0 59772 6300.00000 0 -23222882.186 8761050.535 -5874400.431 10 0 59772 7200.00000 0 -23689388.933 9067846.650 -2709963.671 10 0 59772 8100.00000 0 -23763456.520 9272829.197 507116.745 10 0 59772 9000.00000 0 -23461062.519 9322435.605 3714358.772 10 0 59772 9900.00000 0 -22810576.480 9168372.345 6849524.344 10 0 59772 10800.00000 0 -21851475.968 8769884.288 9851825.576 10 0 59772 11700.00000 0 -20632618.299 8095710.679 12663098.674 10 0 59772 12600.00000 0 -19210141.769 7125645.514 15228922.977 10 0 59772 13500.00000 0 -17645085.218 5851636.898 17499664.172 10 0 59772 14400.00000 0 -16000825.918 4278379.445 19431422.468 10 0 59772 15300.00000 0 -14340442.820 2423374.910 20986868.577 10 0 59772 16200.00000 0 -12724114.615 316458.275 22135952.762 10 0 59772 17100.00000 0 -11206660.150 -2001191.636 22856474.651 10 0 59772 18000.00000 0 -9835322.437 -4478516.782 23134504.036 10 0 59772 18900.00000 0 -8647887.182 -7056460.309 22964645.538 10 0 59772 19800.00000 0 -7671212.820 -9670186.442 22350142.602 10 0 59772 20700.00000 0 -6920232.197 -12251549.588 21302818.931 10 0 59772 21600.00000 0 -6397466.665 -14731712.251 19842858.157 10 0 59772 22500.00000 0 -6093072.420 -17043805.043 17998425.137 10 0 59772 23400.00000 0 -5985417.140 -19125519.878 15805135.052 10 0 59772 24300.00000 0 -6042163.076 -20921529.837 13305379.122 10 0 59772 25200.00000 0 -6221811.743 -22385635.723 10547518.396 10 0 59772 26100.00000 0 -6475645.986 -23482549.985 7584959.815 10 0 59772 27000.00000 0 -6749988.284 -24189243.300 4475131.139 10 0 59772 27900.00000 0 -6988680.473 -24495796.784 1278373.629 10 0 59772 28800.00000 0 -7135680.221 -24405723.155 -1943226.485 10 0 59772 29700.00000 0 -7137664.108 -23935742.321 -5127045.190 10 0 59772 30600.00000 0 -6946526.283 -23115019.750 -8211142.787 10 0 59772 31500.00000 0 -6521665.644 -21983898.801 -11135476.366 10 0 59772 32400.00000 0 -5831962.989 -20592179.770 -13843078.171 10 0 59772 33300.00000 0 -4857362.504 -18997017.804 -16281175.887 10 0 59772 34200.00000 0 -3589988.609 -17260528.281 -18402231.822 10 0 59772 35100.00000 0 -2034748.837 -15447200.767 -20164879.802 10 0 59772 36000.00000 0 -209395.276 -13621230.891 -21534740.640 10 0 59772 36900.00000 0 1855959.765 -11843882.979 -22485099.602 10 0 59772 37800.00000 0 4119855.023 -10170994.872 -22997432.216 10 0 59772 38700.00000 0 6530977.199 -8650730.125 -23061767.993 10 0 59772 39600.00000 0 9030081.502 -7321672.222 -22676884.835 10 0 59772 40500.00000 0 11552255.855 -6211340.586 -21850330.484 10 0 59772 41400.00000 0 14029434.291 -5335190.173 -20598270.768 10 0 59772 42300.00000 0 16393054.274 -4696135.776 -18945167.927 10 0 59772 43200.00000 0 18576746.826 -4284619.700 -16923295.672 10 0 59772 44100.00000 0 20518946.861 -4079218.426 -14572100.888 10 0 59772 45000.00000 0 22165314.497 -4047760.909 -11937425.056 10 0 59772 45900.00000 0 23470866.264 -4148909.497 -9070601.200 10 0 59772 46800.00000 0 24401727.480 -4334134.847 -6027444.701 10 0 59772 47700.00000 0 24936433.111 -4549999.707 -2867158.502 10 0 59772 48600.00000 0 25066723.751 -4740653.478 348825.207 10 0 59772 49500.00000 0 24797804.698 -4850430.847 3558043.559 10 0 59772 50400.00000 0 24148058.807 -4826443.765 6698217.868 10 0 59772 51300.00000 0 23148226.807 -4621056.676 9708460.801 10 0 59772 52200.00000 0 21840090.963 -4194140.260 12530452.441 10 0 59772 53100.00000 0 20274718.559 -3515008.749 15109562.563 10 0 59772 54000.00000 0 18510339.702 -2563959.386 17395898.089 10 0 59772 54900.00000 0 16609948.675 -1333349.594 19345256.415 10 0 59772 55800.00000 0 14638729.031 171833.187 20919967.316 10 0 59772 56700.00000 0 12661409.353 1933932.944 22089608.574 10 0 59772 57600.00000 0 10739658.867 3923119.866 22831582.904 10 0 59772 58500.00000 0 8929630.065 6098398.574 23131546.261 10 0 59772 59400.00000 0 7279749.069 8409089.060 22983680.279 10 0 59772 60300.00000 0 5828844.025 10796720.341 22390804.211 10 0 59772 61200.00000 0 4604688.024 13197259.921 21364324.321 10 0 59772 62100.00000 0 3623015.948 15543588.411 19924021.429 10 0 59772 63000.00000 0 2887055.340 17768118.491 18097679.856 10 0 59772 63900.00000 0 2387590.477 19805450.976 15920563.819 10 0 59772 64800.00000 0 2103556.822 21594958.898 13434749.942 10 0 59772 65700.00000 0 2003141.219 23083192.844 10688327.230 10 0 59772 66600.00000 0 2045342.110 24226007.525 7734478.539 10 0 59772 67500.00000 0 2181924.622 24990320.548 4630460.036 10 0 59772 68400.00000 0 2359688.560 25355429.112 1436497.436 10 0 59772 69300.00000 0 2522953.721 25313828.392 -1785380.059 10 0 59772 70200.00000 0 2616157.287 24871495.995 -4972545.626 10 0 59772 71100.00000 0 2586452.761 24047629.219 -8062996.777 10 0 59772 72000.00000 0 2386199.386 22873844.926 -10996568.903 10 0 59772 72900.00000 0 1975235.155 21392874.692 -13716115.932 10 0 59772 73800.00000 0 1322835.405 19656809.420 -16168634.025 10 0 59772 74700.00000 0 409272.182 17724966.947 -18306305.296 10 0 59772 75600.00000 0 -773093.617 15661472.301 -20087440.199 10 0 59772 76500.00000 0 -2219235.434 13532652.516 -21477299.381 10 0 59772 77400.00000 0 -3911425.712 11404355.904 -22448778.227 10 0 59772 78300.00000 0 -5819745.094 9339308.722 -22982940.366 10 0 59772 79200.00000 0 -7903116.031 7394620.487 -23069389.469 10 0 59772 80100.00000 0 -10110818.265 5619542.727 -22706472.028 10 0 59772 81000.00000 0 -12384423.208 4053575.010 -21901307.272 10 0 59772 81900.00000 0 -14660066.441 2724997.079 -20669643.829 10 0 59772 82800.00000 0 -16870963.098 1649887.880 -19035546.261 10 0 59772 83700.00000 0 -18950060.689 831671.286 -17030917.957 10 0 59772 84600.00000 0 -20832718.079 261206.005 -14694870.141 10 0 59772 85500.00000 0 -22459298.160 -82585.967 -12072949.908 10 0 59773 0.00000 0 -23777565.459 -231580.910 -9216243.226 10 0 59773 900.00000 0 -24744788.964 -226855.058 -6180369.521 10 0 59773 1800.00000 0 -25329460.672 -116695.755 -3024392.190 10 0 59773 2700.00000 0 -25512560.829 45691.816 190338.125 10 0 59773 3600.00000 0 -25288315.917 204684.063 3401380.420 10 0 59773 4500.00000 0 -24664419.534 304837.621 6546417.968 10 0 59773 5400.00000 0 -23661708.129 293476.541 9564466.468 10 0 59773 6300.00000 0 -22313306.485 123158.333 12397052.210 10 0 59773 7200.00000 0 -20663280.003 -246085.269 14989337.549 10 0 59773 8100.00000 0 -18764851.087 -844827.102 17291172.560 10 0 59773 9000.00000 0 -16678254.722 -1692723.488 19258053.441 10 0 59773 9900.00000 0 -14468322.849 -2797456.795 20851970.308 10 0 59773 10800.00000 0 -12201897.819 -4154185.901 22042129.364 10 0 59773 11700.00000 0 -9945181.676 -5745527.649 22805536.926 10 0 59773 12600.00000 0 -7761130.262 -7542070.584 23127435.243 10 0 59773 13500.00000 0 -5706998.873 -9503400.426 23001582.749 10 0 59773 14400.00000 0 -3832139.679 -11579595.938 22430373.966 10 0 59773 15300.00000 0 -2176140.832 -13713134.491 21424796.901 10 0 59773 16200.00000 0 -767383.084 -15841129.910 20004228.480 10 0 59773 17100.00000 0 377927.221 -17897811.453 18196071.164 10 0 59773 18000.00000 0 1256209.264 -19817142.402 16035236.636 10 0 59773 18900.00000 0 1876424.569 -21535470.740 13563485.120 10 0 59773 19800.00000 0 2259463.111 -22994102.402 10828631.528 10 0 59773 20700.00000 0 2437024.152 -24141690.130 7883632.372 10 0 59773 21600.00000 0 2450038.533 -24936338.001 4785569.785 10 0 59773 22500.00000 0 2346698.431 -25347332.898 1594551.337 10 0 59773 23400.00000 0 2180177.462 -25356429.219 -1627453.515 10 0 59773 24300.00000 0 2006137.482 -24958631.538 -4817817.936 10 0 59773 25200.00000 0 1880127.945 -24162440.728 -7914479.510 10 0 59773 26100.00000 0 1854988.699 -22989551.678 -10857154.824 10 0 59773 27000.00000 0 1978367.379 -21474013.932 -13588522.339 10 0 59773 27900.00000 0 2290458.059 -19660889.397 -16055349.469 10 0 59773 28800.00000 0 2822058.631 -17604462.854 -18209540.723 10 0 59773 29700.00000 0 3593030.937 -15366080.035 -20009085.501 10 0 59773 30600.00000 0 4611230.646 -13011703.943 -21418886.223 10 0 59773 31500.00000 0 5871953.730 -10609292.181 -22411449.889 10 0 59773 32400.00000 0 7357924.485 -8226105.466 -22967429.199 10 0 59773 33300.00000 0 9039826.840 -5926060.390 -23076002.434 10 0 59773 34200.00000 0 10877357.553 -3767237.471 -22735084.585 10 0 59773 35100.00000 0 12820757.658 -1799648.719 -21951365.774 10 0 59773 36000.00000 0 14812758.189 -63357.754 -20740176.365 10 0 59773 36900.00000 0 16790858.525 1412969.515 -19125181.717 10 0 59773 37800.00000 0 18689841.613 2613024.119 -17137912.947 10 0 59773 38700.00000 0 20444420.260 3533284.490 -14817143.246 10 0 59773 39600.00000 0 21991903.084 4182901.902 -12208122.545 10 0 59773 40500.00000 0 23274767.986 4583047.828 -9361686.063 10 0 59773 41400.00000 0 24243034.963 4765752.968 -6333254.827 10 0 59773 42300.00000 0 24856338.677 4772289.028 -3181748.473 10 0 59773 43200.00000 0 25085614.085 4651163.727 31567.718 10 0 59773 44100.00000 0 24914324.943 4455815.521 3244278.401 10 0 59773 45000.00000 0 24339184.406 4242106.975 6394032.436 10 0 59773 45900.00000 0 23370338.543 4065723.774 9419751.880 10 0 59773 46800.00000 0 22031006.104 3979589.957 12262812.163 10 0 59773 47700.00000 0 20356590.678 4031408.659 14868170.693 10 0 59773 48600.00000 0 18393303.247 4261432.023 17185422.663 10 0 59773 49500.00000 0 16196353.159 4700553.813 19169764.565 10 0 59773 50400.00000 0 13827783.174 5368804.482 20782847.857 10 0 59773 51300.00000 0 11354038.427 6274311.472 21993507.724 10 0 59773 52200.00000 0 8843369.543 7412768.129 22778354.219 10 0 59773 53100.00000 0 6363176.711 8767433.527 23122215.617 10 0 59773 54000.00000 0 3977403.333 10309663.765 23018426.486 10 0 59773 54900.00000 0 1744085.646 11999953.495 22468955.567 10 0 59773 55800.00000 0 -286841.717 13789445.580 21484371.178 10 0 59773 56700.00000 0 -2075394.881 15621847.589 20083644.577 10 0 59773 57600.00000 0 -3592969.172 17435677.055 18293794.261 10 0 59773 58500.00000 0 -4823288.474 19166743.622 16149377.010 10 0 59773 59400.00000 0 -5762836.641 20750766.105 13691834.069 10 0 59773 60300.00000 0 -6420753.283 22126016.373 10968703.525 10 0 59773 61200.00000 0 -6818198.199 23235880.179 8032712.709 10 0 59773 62100.00000 0 -6987210.933 24031227.860 4940766.821 10 0 59773 63000.00000 0 -6969113.068 24472495.096 1752852.362 10 0 59773 63900.00000 0 -6812520.260 24531385.346 -1469123.865 10 0 59773 64800.00000 0 -6571047.854 24192121.062 -4662537.860 10 0 59773 65700.00000 0 -6300807.257 23452189.371 -7765269.995 10 0 59773 66600.00000 0 -6057799.515 22322549.068 -10716920.583 10 0 59773 67500.00000 0 -5895317.366 20827288.490 -13459994.913 10 0 59773 68400.00000 0 -5861467.028 19002747.155 -15941033.651 10 0 59773 69300.00000 0 -5996916.075 16896136.879 -18111665.388 10 0 59773 70200.00000 0 -6332964.404 14563719.500 -19929559.839 10 0 59773 71100.00000 0 -6890021.485 12068617.159 -21359262.251 10 0 59773 72000.00000 0 -7676555.828 9478346.858 -22372891.979 10 0 59773 72900.00000 0 -8688562.430 6862182.628 -22950691.232 10 0 59773 73800.00000 0 -9909571.844 4288455.799 -23081412.991 10 0 59773 74700.00000 0 -11311201.322 1821906.566 -22762540.487 10 0 59773 75600.00000 0 -12854225.448 -478802.527 -22000334.071 10 0 59773 76500.00000 0 -14490121.490 -2563307.480 -20809704.751 10 0 59773 77400.00000 0 -16163024.459 -4391405.785 -19213917.182 10 0 59773 78300.00000 0 -17812009.500 -5934484.483 -17244128.288 10 0 59773 79200.00000 0 -19373605.297 -7176454.904 -14938770.967 10 0 59773 80100.00000 0 -20784432.344 -8114156.585 -12342795.439 10 0 59773 81000.00000 0 -21983854.722 -8757215.434 -9506783.707 10 0 59773 81900.00000 0 -22916533.513 -9127364.369 -6485955.022 10 0 59773 82800.00000 0 -23534774.205 -9257257.278 -3339082.593 10 0 59773 83700.00000 0 -23800569.416 -9188828.592 -127343.414 10 0 59773 84600.00000 0 -23687251.261 -8971269.754 3086875.735 10 0 59773 85500.00000 0 -23180684.404 -8658709.772 6241192.152 10 0 59774 0.00000 0 -22279950.481 -8307699.242 9274436.747 10 0 59774 900.00000 0 -20997495.397 -7974604.795 12127837.263 10 0 59774 1800.00000 0 -19358735.464 -7713024.870 14746148.311 10 0 59774 2700.00000 0 -17401137.933 -7571335.177 17078712.384 10 0 59774 3600.00000 0 -15172815.906 -7590467.386 19080428.101 10 0 59774 4500.00000 0 -12730695.980 -7802013.723 20712609.726 10 0 59774 5400.00000 0 -10138334.689 -8226736.513 21943722.468 10 0 59774 6300.00000 0 -7463473.715 -8873544.656 22749980.728 10 0 59774 7200.00000 0 -4775434.339 -9738979.559 23115799.009 10 0 59774 8100.00000 0 -2142457.619 -10807232.128 23034087.842 10 0 59774 9000.00000 0 370901.213 -12050690.575 22506389.689 10 0 59774 9900.00000 0 2706217.881 -13430997.057 21542852.407 10 0 59774 10800.00000 0 4813384.206 -14900570.338 20162040.553 10 0 59774 11700.00000 0 6652444.158 -16404532.451 18390587.419 10 0 59774 12600.00000 0 8195005.740 -17882960.529 16262693.410 10 0 59774 13500.00000 0 9425170.881 -19273371.279 13819479.066 10 0 59774 14400.00000 0 10339945.040 -20513335.489 11108203.674 10 0 59774 15300.00000 0 10949109.501 -21543113.930 8181363.134 10 0 59774 16200.00000 0 11274561.564 -22308204.529 5095683.213 10 0 59774 17100.00000 0 11349150.060 -22761693.626 1911026.632 10 0 59774 18000.00000 0 11215054.806 -22866311.694 -1310765.335 10 0 59774 18900.00000 0 10921778.120 -22596105.732 -4507074.499 10 0 59774 19800.00000 0 10523833.211 -21937656.240 -7615727.038 10 0 59774 20700.00000 0 10078227.452 -20890785.611 -10576209.982 10 0 59774 21600.00000 0 9641847.664 -19468726.155 -13330858.364 10 0 59774 22500.00000 0 9268859.042 -17697738.801 -15825988.875 10 0 59774 23400.00000 0 9008229.019 -15616196.952 -18012956.751 10 0 59774 24300.00000 0 8901482.229 -13273172.710 -19849114.306 10 0 59774 25200.00000 0 8980782.952 -10726583.889 -21298651.533 10 0 59774 26100.00000 0 9267427.479 -8040979.034 -22333301.641 10 0 59774 27000.00000 0 9770811.264 -5285052.950 -22932897.360 10 0 59774 27900.00000 0 10487915.492 -2528996.579 -23085766.900 10 0 59774 28800.00000 0 11403335.421 158207.844 -22788961.762 10 0 59774 29700.00000 0 12489849.730 2711433.416 -22048312.090 10 0 59774 30600.00000 0 13709507.067 5071886.604 -20878308.656 10 0 59774 31500.00000 0 15015183.886 7189313.498 -19301814.108 10 0 59774 32400.00000 0 16352547.638 9023842.856 -17349609.492 10 0 59774 33300.00000 0 17662342.163 10547389.983 -15059785.324 10 0 59774 34200.00000 0 18882898.389 11744564.034 -12476989.667 10 0 59774 35100.00000 0 19952763.989 12613042.602 -9651548.487 10 0 59774 36000.00000 0 20813340.638 13163399.915 -6638476.123 10 0 59774 36900.00000 0 21411417.303 13418398.109 -3496395.971 10 0 59774 37800.00000 0 21701492.607 13411773.731 -286393.187 10 0 59774 38700.00000 0 21647788.420 13186572.821 2929177.599 10 0 59774 39600.00000 0 21225870.116 12793106.728 6087905.633 10 0 59774 40500.00000 0 20423805.759 12286616.574 9128534.518 10 0 59774 41400.00000 0 19242816.043 11724746.052 11992146.237 10 0 59774 42300.00000 0 17697388.325 11164929.846 14623295.824 10 0 59774 43200.00000 0 15814850.502 10661807.980 16971075.329 10 0 59774 44100.00000 0 13634422.870 10264774.693 18990087.353 10 0 59774 45000.00000 0 11205787.652 10015764.400 20641310.405 10 0 59774 45900.00000 0 8587235.450 9947366.930 21892840.745 10 0 59774 46800.00000 0 5843464.963 10081350.324 22720497.748 10 0 59774 47700.00000 0 3043126.259 10427652.365 23108282.361 10 0 59774 48600.00000 0 256207.987 10983882.641 23048680.875 10 0 59774 49500.00000 0 -2448625.004 11735355.910 22542808.836 10 0 59774 50400.00000 0 -5006635.132 12655655.778 21600392.574 10 0 59774 51300.00000 0 -7359450.654 13707705.904 20239588.463 10 0 59774 52200.00000 0 -9457240.007 14845305.198 18486642.695 10 0 59774 53100.00000 0 -11260532.936 16015064.124 16375397.057 10 0 59774 54000.00000 0 -12741613.834 17158662.595 13946648.876 10 0 59774 54900.00000 0 -13885429.860 18215336.180 11247375.917 10 0 59774 55800.00000 0 -14689976.089 19124487.343 8329839.815 10 0 59774 56700.00000 0 -15166141.540 19828312.686 5250584.002 10 0 59774 57600.00000 0 -15337022.184 20274335.709 2069344.510 10 0 59774 58500.00000 0 -15236729.364 20417737.960 -1152105.805 10 0 59774 59400.00000 0 -14908743.448 20223389.230 -4351157.394 10 0 59774 60300.00000 0 -14403881.967 19667489.651 -7465584.979 10 0 59774 61200.00000 0 -13777968.061 18738752.533 -10434764.919 10 0 59774 62100.00000 0 -13089298.209 17439076.036 -13200864.403 10 0 59774 63000.00000 0 -12396016.999 15783673.238 -15709978.325 10 0 59774 63900.00000 0 -11753510.919 13800653.266 -17913190.461 10 0 59774 64800.00000 0 -11211932.543 11530069.403 -19767537.290 10 0 59774 65700.00000 0 -10813960.959 9022472.844 -21236854.801 10 0 59774 66600.00000 0 -10592894.251 6337031.878 -22292490.973 10 0 59774 67500.00000 0 -10571155.633 3539294.649 -22913869.650 10 0 59774 68400.00000 0 -10759277.069 698688.811 -23088894.532 10 0 59774 69300.00000 0 -11155403.820 -2114137.515 -22814185.315 10 0 59774 70200.00000 0 -11745341.043 -4830022.448 -22095141.498 10 0 59774 71100.00000 0 -12503140.426 -7383931.875 -20945832.820 10 0 59774 72000.00000 0 -13392201.821 -9717425.646 -19388718.754 10 0 59774 72900.00000 0 -14366842.888 -11780846.001 -17454202.947 10 0 59774 73800.00000 0 -15374269.887 -13535137.587 -15180031.695 10 0 59774 74700.00000 0 -16356865.669 -14953224.016 -12610548.791 10 0 59774 75600.00000 0 -17254697.550 -16020884.884 -9795821.853 10 0 59774 76500.00000 0 -18008138.462 -16737098.290 -6790657.838 10 0 59774 77400.00000 0 -18560490.091 -17113836.504 -3653527.758 10 0 59774 78300.00000 0 -18860496.824 -17175325.604 -445422.273 10 0 59774 79200.00000 0 -18864644.201 -16956802.458 2771338.846 10 0 59774 80100.00000 0 -18539144.860 -16502823.453 5934319.545 10 0 59774 81000.00000 0 -17861528.550 -15865198.065 8982178.626 10 0 59774 81900.00000 0 -16821769.573 -15100635.779 11855855.596 10 0 59774 82800.00000 0 -15422904.725 -14268206.416 14499708.291 10 0 59774 83700.00000 0 -13681116.234 -13426721.282 16862580.816 10 0 59774 84600.00000 0 -11625276.397 -12632145.216 18898782.012 10 0 59774 85500.00000 0 -9295973.058 -11935147.819 20568956.583 99